Location: Chatley
(51.8167°N, 0.5167°E)
Time: 18:25:21
(UTC+00:00)

Daily predictions for brighter satellites

Satellite Brightness Start Highest point End
(mag) Time Altitude Azimuth Time Altitude Azimuth Time Altitude Azimuth
FALCON 9 DEB 3.9 21:03:03 10° SSW 21:05:54 29° SSE 21:08:47 10° E
SL-8 R/B 4.0 21:02:48 10° WSW 21:07:25 48° SSE 21:12:04 10° E
Terra 2.2 21:03:40 10° SE 21:08:18 55° ENE 21:12:58 10° N
Cosmos 1980 Rocket 4.5 21:04:56 10° NNW 21:08:43 18° NNE 21:12:29 10° ENE
USA 267 3.7 21:03:41 10° ENE 21:09:47 40° SE 21:15:52 10° SSW
Cosmos 1455 2.9 21:07:12 10° N 21:10:47 39° ENE 21:14:22 10° SE
Cosmos 2369 Rocket 3.9 21:07:11 10° NW 21:11:47 27° WSW 21:16:23 10° SSW
Meteor 1-24 Rocket 3.9 21:08:05 10° SSE 21:13:10 49° E 21:18:21 10° NNE
Cosmos 1697 Rocket 4.4 21:09:14 10° NNW 21:13:52 25° NE 21:18:28 10° E
Cosmos 2315 Rocket 4.1 21:08:08 10° S 21:14:24 65° E 21:20:39 10° NNE
NOSS 2-1 (C) 4.2 21:11:32 10° NW 21:15:33 57° NE 21:21:08 10° ESE
RESURS DK-1 4.4 21:14:55 10° N 21:18:04 20° NE 21:21:12 10° E
Cosmos 1371 Rocket 4.4 21:13:56 10° S 21:18:52 44° ESE 21:23:52 10° NE
Spot 2 Rocket 3.6 21:16:24 10° SSE 21:21:29 83° WSW 21:26:38 10° NNW
NOSS 2-1 (D) 4.1 21:21:49 10° NW 21:25:57 66° NE 21:31:42 10° SE
CZ-4B R/B 3.2 21:23:36 10° N 21:26:10 28° WNW 21:28:42 10° SW
Lacrosse 5 rocket 1.2 21:23:41 10° WNW 21:27:31 83° SSW 21:31:34 10° SE
Cosmos 1709 Rocket 4.2 21:21:41 10° NNW 21:27:50 74° W 21:34:02 10° S
ARIANE 5 R/B 2.9 21:23:49 10° SSE 21:28:14 63° ENE 21:32:40 10° N
SPOT 3 Rocket 4.3 21:24:25 10° S 21:29:27 51° W 21:34:32 10° NNW
Cosmos 2074 Rocket 4.3 21:29:52 10° N 21:36:05 56° ENE 21:42:02 11° SSE
ATLAS 2AS CENTAUR R/B 2.8 21:30:54 10° NW 21:38:12 89° NE 21:44:51 10° SE
Cosmos 1624 Rocket 4.1 21:35:27 10° S 21:40:36 60° ESE 21:45:45 10° NNE
Cosmos 1656 4.1 21:36:13 10° NNW 21:41:35 54° NE 21:46:54 10° SE
Cosmos 1190 Rocket 4.4 21:37:05 10° NNW 21:42:20 60° WSW 21:47:33 10° S
ASTRO F (AKARI) 4.5 21:42:15 12° SSE 21:45:31 89° ESE 21:49:06 10° NNW
USA 234 3.3 21:39:28 10° SE 21:46:03 79° SSW 21:52:39 10° WNW
Cosmos 1833 Rocket 4.4 21:44:37 10° SE 21:47:47 16° E 21:51:06 10° ENE
Cosmos 1455 Rocket 4.1 21:45:28 10° NNW 21:49:35 41° W 21:53:39 10° SSW
Cosmos 2154 Rocket 4.3 21:49:16 10° N 21:55:25 55° ENE 22:00:52 13° SSE
SPOT 5 3.7 21:52:48 10° SSW 21:57:03 40° W 22:01:12 10° NNW
Cosmos 1271 Rocket 3.0 21:53:40 10° NNW 21:57:39 68° W 22:01:15 12° S
Cosmos 2056 Rocket 3.6 21:54:54 10° SSW 22:00:17 84° ESE 22:05:45 10° NNE
Meteor 2-5 Rocket 4.1 21:56:53 10° SSW 22:02:22 64° WNW 22:07:54 10° N
Cosmos 1741 Rocket 4.4 21:57:09 10° NNW 22:02:24 57° ENE 22:07:02 13° SE
Cosmos 1025 Rocket 3.8 21:59:09 10° SSW 22:03:19 51° WNW 22:07:31 10° N
Cosmos 2344 4.4 21:58:25 10° NW 22:06:44 68° NE 22:18:06 10° ESE
Cosmos 676 Rocket 4.4 22:03:35 10° NNW 22:08:50 59° WSW 22:13:24 13° S
ERS-1 Rocket 4.1 22:05:16 10° SSW 22:09:59 39° W 22:14:43 10° NNW
Cosmos 1420 Rocket 4.0 22:07:18 10° SSW 22:12:33 86° ESE 22:17:53 10° NNE
Cosmos 1536 Rocket 3.5 22:13:48 12° S 22:17:46 82° E 22:22:08 10° NNE
Cosmos 1607 3.9 22:11:36 10° SSW 22:17:49 74° SE 22:24:00 10° NE
CZ-2C R/B 4.4 22:13:22 10° N 22:17:57 57° WNW 22:22:25 10° SSW
Lacrosse 5 2.0 22:18:54 10° WNW 22:23:57 60° SW 22:27:56 16° SE
Cosmos 1606 Rocket 3.8 22:20:05 10° N 22:24:22 58° ENE 22:27:26 18° SSE
NOSS 2-1 (E) 4.2 22:20:09 10° NW 22:24:34 62° SW 22:29:25 16° SSE
SAR-Lupe-4 3.5 22:22:59 10° NNE 22:26:35 76° ESE 22:29:20 16° S
Cosmos 2184 Rocket 4.2 22:22:17 10° NNW 22:28:26 71° W 22:33:50 14° S
Cosmos 724 4.3 22:25:35 10° SSW 22:31:15 58° ESE 22:36:57 10° NE
Tiangong 3.6 22:32:27 10° SSW 22:32:27 10° SSW 22:32:27 10° SSW
Cosmos 1850 Rocket 4.0 22:29:55 10° NNW 22:35:11 82° WSW 22:39:02 18° SSE
Lacrosse 4 Rocket 4.3 22:33:44 10° W 22:36:47 20° NW 22:39:49 10° NNE
Cosmos 2228 3.1 22:33:54 10° NNW 22:38:09 71° W 22:41:10 18° S
Cosmos 1328 4.2 22:37:12 20° SSE 22:39:40 48° E 22:43:34 10° NNE
Cosmos 2341 Rocket 4.4 22:33:54 10° N 22:40:11 57° ENE 22:45:04 17° SSE
Meteor 1-21 Rocket 4.2 22:35:48 16° S 22:40:20 70° E 22:45:58 10° NNE
SL-16 R/B 4.4 22:36:17 10° NNW 22:40:31 21° NNE 22:44:43 10° E
Cosmos 1703 3.3 22:38:48 15° SSW 22:41:57 74° WNW 22:45:49 10° N
FALCON 9 DEB 2.9 22:38:40 10° WSW 22:41:57 89° N 22:45:14 10° ENE
SAR-Lupe-1 4.4 22:38:33 10° N 22:42:07 65° WNW 22:45:12 13° SSW
Cosmos 1408 3.9 22:43:33 18° SE 22:45:03 25° E 22:47:56 10° NE
Cosmos 1455 4.3 22:43:11 10° NW 22:46:01 20° W 22:48:51 10° SW
Terra 3.7 22:42:36 10° SW 22:46:23 23° W 22:50:11 10° NW
Cosmos 1825 4.3 22:46:54 12° ESE 22:48:37 16° E 22:50:53 10° NE
SL-8 R/B 3.7 22:44:54 10° W 22:49:38 58° S 22:54:23 10° ESE
ALOS 2 3.1 22:46:37 18° SE 22:49:41 51° ENE 22:53:57 10° N
Cosmos 1726 Rocket 3.5 22:46:28 10° N 22:50:49 82° E 22:53:36 22° SSE
USA 267 3.3 22:46:40 10° ENE 22:53:16 88° NNW 22:59:49 10° WSW
Cosmos 1980 Rocket 2.8 22:48:29 10° NNW 22:54:06 53° NE 22:59:14 12° SE
RESURS DK-1 2.3 22:52:23 10° NW 22:56:32 75° WSW 22:59:03 23° SSE
Cosmos 1697 Rocket 2.7 22:52:54 10° NNW 22:58:35 88° WSW 23:02:42 19° SSE
Cosmos 1331 Rocket 4.2 22:57:21 19° S 23:01:07 58° ESE 23:06:20 10° NNE
Cosmos 1452 Rocket 3.5 22:57:20 12° SSW 23:02:13 88° WNW 23:07:32 10° NNE
Lacrosse 5 rocket 3.0 23:03:18 10° W 23:06:07 19° SW 23:07:17 17° SSW
Spot 4 3.9 23:04:25 21° S 23:07:36 74° WSW 23:12:25 10° NNW
ASTEX 1 3.6 23:02:42 10° N 23:07:42 69° W 23:11:36 17° SSW
ERS-2 3.5 23:05:04 10° NE 23:08:04 24° E 23:09:26 19° SE
Cosmos 1892 3.3 23:06:34 24° SSE 23:08:20 40° E 23:11:54 10° NNE
USA 276 3.4 23:10:14 21° ESE 23:10:14 21° ESE 23:11:39 10° E
Cosmos 2084 Rocket 4.0 23:05:27 10° NW 23:09:14 51° NE 23:13:09 10° ESE
Cosmos 2084 3.5 23:05:37 10° SW 23:09:26 67° NW 23:13:20 10° NE
ADEOS Rocket 3.5 23:05:35 18° SSE 23:11:06 79° ENE 23:18:43 10° NNW
Cosmos 2058 Rocket 3.0 23:09:38 10° N 23:14:03 83° ENE 23:16:43 24° SSE
Cosmos 1110 Rocket 4.0 23:15:12 17° SSW 23:19:21 84° ESE 23:24:41 10° NNE
Cosmos 2181 Rocket 4.2 23:15:18 20° SSE 23:19:30 58° E 23:25:35 10° NNE
GP-B 3.4 23:15:43 10° N 23:20:07 62° W 23:23:05 20° SSW
Cosmos 2360 4.4 23:15:32 10° NW 23:21:13 65° WSW 23:25:00 21° S
Cosmos 2278 4.4 23:16:29 10° NNW 23:22:06 53° NE 23:27:31 11° SE
Cosmos 2322 Rocket 4.1 23:18:10 10° NNW 23:22:52 26° NE 23:27:35 10° E
Cosmos 1302 Rocket 4.5 23:21:10 22° SSE 23:24:11 46° ESE 23:29:09 10° NE
Cosmos 1892 Rocket 3.6 23:22:22 22° SSW 23:25:14 84° W 23:29:41 10° N
Cosmos 864 Rocket 4.5 23:20:46 10° N 23:26:57 81° E 23:31:19 21° SSE
ATLAS 2AS CENTAUR R/B 4.0 23:22:42 10° WNW 23:28:17 26° WSW 23:32:16 15° SSW
USA 234 4.2 23:26:12 19° S 23:29:43 30° SW 23:35:24 10° WNW
Cosmos 1833 Rocket 2.6 23:26:16 16° SSW 23:30:51 83° ESE 23:36:31 10° NNE
BREEZE-M DEB (TANK) 3.7 23:36:06 10° W 23:39:21 68° S 23:51:35 10° ESE
Okean 1-7 Rocket 3.7 23:39:49 25° S 23:42:16 63° E 23:46:42 10° NNE
Cosmos 1626 Rocket 3.8 23:42:03 25° SSE 23:44:22 56° E 23:48:37 10° NNE
Cosmos 2082 Rocket 2.6 23:41:31 22° S 23:45:00 51° ESE 23:50:31 10° NE
Cosmos 1821 Rocket 4.3 23:39:57 10° N 23:46:13 61° ENE 23:50:56 18° SSE
Meteor 1-27 4.2 23:42:04 10° NNW 23:47:41 83° W 23:51:21 22° S
Cosmos 1869 3.1 23:45:05 10° N 23:48:57 87° W 23:50:55 28° S
ATLAS 5 CENTAUR R/B 3.5 23:51:04 11° ESE 23:51:41 11° ESE 23:53:02 10° E
Cosmos-2242 3.5 23:50:37 10° N 23:54:48 51° ENE 23:57:29 20° SE
BREEZE-M DEB (TANK) 3.8 23:47:15 10° SW 23:56:19 44° SSE 23:59:32 10° E
